This demonstration page uses our WeatherBlox Daily Observations layout. Learn more.

Left ArrowRight Arrow

Hourly Observations for July 26, 2020

Temp ( °F °C ) Dew Point ( °F °C ) Humidity (%) Winds ( mph kmh ) Pressure ( in mb ) Visibility ( mi km ) Precip ( " mm )
12:15 am 00:15 Clear 77 25 73 23 89 89 Calm 30.09 1019 10 16.0934 0 0
12:35 am 00:35 Clear 75 24 73 23 94 94 Calm 30.1 1019 10 16.0934 0 0
12:55 am 00:55 Clear 73 23 73 23 100 100 Calm 30.1 1019 10 16.0934 0 0
1:15 am 01:15 Clear 73 23 73 23 100 100 Calm 30.1 1019 10 16.0934 0 0
1:35 am 01:35 Clear 75 24 73 23 94 94 Calm 30.1 1019 10 16.0934 0 0
1:55 am 01:55 Clear 75 24 72 22 89 89 Calm 30.09 1019 10 16.0934 0 0
2:15 am 02:15 Mostly Cloudy 77 25 73 23 89 89 Calm 30.08 1019 10 16.0934 0 0
2:35 am 02:35 Cloudy 73 23 72 22 94 94 Calm 30.09 1019 10 16.0934 0 0
2:55 am 02:55 Cloudy 73 23 72 22 94 94 Calm 30.1 1019 10 16.0934 0 0
3:15 am 03:15 Mostly Cloudy 73 23 72 22 94 94 Calm 30.09 1019 10 16.0934 0 0
3:35 am 03:35 Partly Cloudy 72 22 72 22 100 100 W 3 6 30.09 1019 10 16.0934 0 0
3:55 am 03:55 Clear 72 22 72 22 100 100 Calm 30.09 1019 10 16.0934 0 0
4:15 am 04:15 Clear 72 22 72 22 100 100 Calm 30.08 1019 10 16.0934 0 0
4:35 am 04:35 Clear 70 21 70 21 100 100 Calm 30.09 1019 10 16.0934 0 0
4:55 am 04:55 Clear 72 22 70 21 94 94 Calm 30.08 1019 10 16.0934 0 0
5:15 am 05:15 Clear 70 21 70 21 100 100 Calm 30.09 1019 10 16.0934 0 0
5:35 am 05:35 Clear 70 21 70 21 100 100 Calm 30.09 1019 7 11.26538 0 0
5:55 am 05:55 Clear 68 20 68 20 100 100 SW 3 6 30.09 1019 10 16.0934 0 0
6:15 am 06:15 Sunny 68 20 68 20 100 100 SSW 3 6 30.09 1019 7 11.26538 0 0
6:35 am 06:35 Sunny 68 20 68 20 100 100 Calm 30.1 1019 10 16.0934 0 0
6:55 am 06:55 Sunny 68 20 68 20 100 100 Calm 30.09 1019 7 11.26538 0 0
7:15 am 07:15 Sunny 70 21 70 21 100 100 Calm 30.09 1019 10 16.0934 0 0
7:35 am 07:35 Sunny 70 21 70 21 100 100 Calm 30.09 1019 10 16.0934 0 0
7:55 am 07:55 Sunny 72 22 70 21 94 94 Calm 30.1 1019 10 16.0934 0 0
8:15 am 08:15 Sunny 73 23 70 21 89 89 Calm 30.1 1019 10 16.0934 0 0
8:35 am 08:35 Sunny 77 25 70 21 79 79 Calm 30.08 1019 10 16.0934 0 0
8:55 am 08:55 Sunny 79 26 70 21 74 74 WNW 8 13 30.08 1019 10 16.0934 0 0
9:15 am 09:15 Sunny 81 27 70 21 70 70 W 8 13 30.08 1019 10 16.0934 0 0
9:35 am 09:35 Sunny 81 27 70 21 70 70 WNW 6 9 30.08 1019 10 16.0934 0 0
9:55 am 09:55 Sunny 82 28 68 20 62 62 WNW 10 17 30.08 1019 10 16.0934 0 0
10:15 am 10:15 Sunny 82 28 68 20 62 62 WNW 6 9 30.08 1019 10 16.0934 0 0
10:35 am 10:35 Sunny 84 29 68 20 58 58 NNW 7 11 30.08 1019 10 16.0934 0 0
10:55 am 10:55 Sunny 84 29 68 20 58 58 N 7 11 30.08 1019 10 16.0934 0 0
11:15 am 11:15 Sunny 86 30 70 21 59 59 WNW 6 9 30.08 1019 10 16.0934 0 0
11:35 am 11:35 Sunny 86 30 68 20 55 55 N 8 13 30.07 1018 10 16.0934 0 0
11:55 am 11:55 Sunny 88 31 70 21 55 55 NW 8 13 30.06 1018 10 16.0934 0 0
4:35 pm 16:35 Sunny 91 33 68 20 46 46 NW 8 13 29.99 1016 10 16.0934 0 0
9:55 pm 21:55 Clear 82 28 72 22 70 70 WSW 3 6 29.98 1015 10 16.0934 0 0
10:15 pm 22:15 Clear 82 28 72 22 70 70 WSW 3 6 29.98 1015 10 16.0934 0 0
10:35 pm 22:35 Clear 81 27 72 22 74 74 WSW 3 6 29.96 1015 10 16.0934 0 0
10:55 pm 22:55 Clear 81 27 72 22 74 74 WSW 5 7 29.96 1015 10 16.0934 0 0
11:15 pm 23:15 Clear 81 27 72 22 74 74 WSW 5 7 29.96 1015 10 16.0934 0 0
11:35 pm 23:35 Clear 81 27 72 22 74 74 WSW 6 9 29.96 1015 10 16.0934 0 0
11:55 pm 23:55 Clear 81 27 72 22 74 74 WSW 5 7 29.96 1015 10 16.0934 0 0

Powered by AerisWeather